Location: Agadir Mansour Mhndou
(31.2424°N, 8.7730°W)
Time: 06:01:54
(UTC+00:00)

SL-08 R/B - Pass Details

Date: 16 October 2021
Orbit: 951 x 1018 km, 82.9° (Epoch: 28 November)

Event Time Altitude Azimuth Distance (km) Brightness Sun altitude
Rises 18:39:50 0° 184° (S) 3,616 7.6 -8.8°
Reaches altitude 10° 18:42:18 10° 184° (S) 2,679 6.9 -9.4°
Maximum altitude 18:48:26 89° 101° (ESE) 971 4.5 -10.7°
Drops below altitude 10° 18:54:42 10° 6° (N) 2,733 6.8 -12.0°
Sets 18:57:14 0° 6° (N) 3,695 7.4 -12.5°
